Location: Chevoux
(46.3801°N, 4.9476°E)
Time: 01:11:19
(UTC+00:00)

Vanguard 1 - All Passes

Search period start: 12 May 2021 00:00
Search period end: 22 May 2021 00:00
Orbit: 649 x 3834 km, 34.2° (Epoch: 04 May)

Date Brightness Start Highest point End Pass type
(mag) Time Alt. Az. Time Alt. Az. Time Alt. Az.
12 May - 08:02:31 10° SSW 08:06:16 20° SSE 08:11:14 10° ESE daylight
12 May - 10:19:50 10° WSW 10:25:39 35° S 10:35:13 10° ESE daylight
12 May - 12:38:57 10° WSW 12:46:28 30° SSW 12:58:34 10° SE daylight
12 May - 15:01:52 10° WSW 15:08:25 15° SSW 15:16:41 10° S daylight
13 May - 08:22:38 10° SSW 08:26:46 24° SSE 08:32:31 10° ESE daylight
13 May - 10:40:30 10° WSW 10:46:24 34° S 10:56:06 10° ESE daylight
13 May - 13:00:07 10° WSW 13:07:23 25° SSW 13:18:28 10° SSE daylight
14 May - 08:42:58 10° SW 08:47:21 27° SSE 08:53:38 10° ESE daylight
14 May - 11:01:16 10° WSW 11:07:12 31° S 11:16:48 10° SE daylight
14 May - 13:21:38 10° WSW 13:28:19 20° SSW 13:37:49 10° SSE daylight
15 May - 06:47:03 10° S 06:49:00 12° SSE 06:51:09 10° SE daylight
15 May - 09:03:26 10° SW 09:07:58 28° S 09:14:38 10° ESE daylight
15 May - 11:22:09 10° WSW 11:28:02 27° S 11:37:16 10° SE daylight
15 May - 13:43:50 10° WSW 13:49:15 15° SSW 13:56:15 10° S daylight
16 May - 07:06:38 10° SSW 07:09:30 16° SSE 07:12:50 10° ESE daylight
16 May - 09:24:02 10° SW 09:28:40 28° S 09:35:31 10° ESE daylight
16 May - 11:43:13 10° WSW 11:48:53 23° SSW 11:57:23 10° SSE daylight
16 May - 14:08:58 10° SW 14:10:13 10° SSW 14:11:31 10° SSW daylight
17 May - 07:26:43 10° SSW 07:30:03 19° SSE 07:34:04 10° ESE daylight
17 May - 09:44:45 10° WSW 09:49:23 27° S 09:56:14 10° SE daylight
17 May - 12:04:35 10° WSW 12:09:47 19° SSW 12:17:01 10° SSE daylight
18 May - 07:47:04 10° SW 07:50:39 22° SSE 07:55:06 10° ESE daylight
18 May - 10:05:34 10° WSW 10:10:09 24° S 10:16:46 10° SE daylight
18 May - 12:26:35 10° SW 12:30:41 14° SSW 12:35:50 10° S daylight
19 May - 05:50:47 10° S 05:52:14 11° SSE 05:53:42 10° SE daylight
19 May - 08:07:36 10° SW 08:11:16 23° S 08:15:58 10° SE daylight
19 May - 10:26:35 10° WSW 10:30:56 21° S 10:37:01 10° SSE daylight
20 May - 06:10:19 10° SSW 06:12:49 15° SSE 06:15:24 10° SE daylight
20 May - 08:28:14 10° SW 08:31:56 22° S 08:36:42 10° SE daylight
20 May - 10:47:53 10° SW 10:51:45 17° SSW 10:56:49 10° SSE daylight
21 May - 06:30:27 10° SSW 06:33:24 17° S 06:36:32 10° SE daylight
21 May - 08:49:02 10° SW 08:52:38 21° S 08:57:16 10° SE daylight
21 May - 11:09:52 10° SW 11:12:35 12° SSW 11:15:47 10° S daylight
